User: anonymous   Login
Location: Unspecified
(0.0000°N, 0.0000°E)
Time: 02:35:45
(UTC+00:00)
Language:

ASTRA 1KR - Orbit

View from above orbital plane
View from above orbital plane
View from above satellite
View from above satellite

Ground track
Ground track

The orbit data is extracted from the following two-line orbital elements,

1 29055U 06012A   15029.20921024  .00000102  00000-0  00000+0 0  2486
2 29055 000.0568 307.6439 0004877 350.7766 284.1863 01.00273117 32104
Epoch (UTC): 29 January 2015 05:01:15
Eccentricity: 0.0004877
inclination: 0.0568°
perigee height: 35765 km
apogee height: 35806 km
right ascension of ascending node: 307.6439°
argument of perigee: 350.7766°
revolutions per day: 1.00273117
mean anomaly at epoch: 284.1863°
orbit number at epoch: 3210

The dashed part of the orbit path shows where the satellite is in the earth's shadow,  

DLR